EN

Hourly Weather Bulla Regia

Today, 9 May, Sunday

Time Temperature Precipitation Wind Pressure Humidity
00:00 +16°C° 0 mm 1 mps 705 mmHg 58%
01:00 +16°C° 0 mm 1 mps 704 mmHg 58%
02:00 +16°C° 0 mm 1 mps 704 mmHg 58%
03:00 +15°C° 0 mm 1 mps 704 mmHg 59%
04:00 +15°C° 0 mm 1 mps 703 mmHg 59%
05:00 +16°C° 0 mm 1 mps 704 mmHg 59%
06:00 +18°C° 0 mm 1 mps 704 mmHg 58%
07:00 +18°C° 0 mm 2 mps 704 mmHg 56%
08:00 +20°C° 0 mm 2 mps 704 mmHg 49%
09:00 +24°C° 0 mm 3 mps 704 mmHg 42%
10:00 +26°C° 0 mm 3 mps 705 mmHg 35%
11:00 +27°C° 0 mm 4 mps 704 mmHg 30%
12:00 +29°C° 0 mm 4 mps 704 mmHg 24%
13:00 +30°C° 0 mm 4 mps 704 mmHg 19%
14:00 +30°C° 0 mm 4 mps 704 mmHg 19%
15:00 +30°C° 0 mm 4 mps 703 mmHg 19%
16:00 +30°C° 0 mm 4 mps 703 mmHg 19%
17:00 +28°C° 0 mm 3 mps 702 mmHg 24%
18:00 +26°C° 0 mm 3 mps 702 mmHg 29%
19:00 +24°C° 0 mm 2 mps 702 mmHg 34%
20:00 +23°C° 0 mm 2 mps 702 mmHg 35%
21:00 +21°C° 0 mm 2 mps 702 mmHg 35%
22:00 +20°C° 0 mm 3 mps 703 mmHg 35%
23:00 +19°C° 0 mm 2 mps 703 mmHg 38%

Tomorrow, 10 May, Monday

Time Temperature Precipitation Wind Pressure Humidity
00:00 +18°C° 0 mm 2 mps 702 mmHg 41%
01:00 +17°C° 0 mm 2 mps 702 mmHg 45%
02:00 +17°C° 0 mm 2 mps 702 mmHg 45%
03:00 +17°C° 0 mm 2 mps 701 mmHg 46%
04:00 +16°C° 0 mm 2 mps 701 mmHg 47%
05:00 +17°C° 0 mm 2 mps 701 mmHg 47%
06:00 +18°C° 0 mm 2 mps 702 mmHg 47%
07:00 +19°C° 0 mm 1 mps 702 mmHg 47%
08:00 +21°C° 0 mm 2 mps 702 mmHg 41%
09:00 +24°C° 0 mm 2 mps 702 mmHg 34%
10:00 +26°C° 0 mm 2 mps 703 mmHg 28%
11:00 +27°C° 0 mm 2 mps 702 mmHg 26%
12:00 +29°C° 0 mm 2 mps 702 mmHg 25%
13:00 +30°C° 0 mm 2 mps 702 mmHg 23%
14:00 +30°C° 0 mm 3 mps 702 mmHg 27%
15:00 +30°C° 0 mm 4 mps 701 mmHg 30%
16:00 +29°C° 0 mm 5 mps 701 mmHg 34%
17:00 +27°C° 0 mm 4 mps 701 mmHg 42%
18:00 +25°C° 0 mm 3 mps 701 mmHg 51%
19:00 +22°C° 0 mm 3 mps 700 mmHg 59%
20:00 +20°C° 0 mm 2 mps 700 mmHg 63%
21:00 +19°C° 0 mm 2 mps 700 mmHg 66%
22:00 +19°C° 0 mm 1 mps 701 mmHg 70%
23:00 +19°C° 0 mm 1 mps 700 mmHg 67%

Day after tomorrow, 11 May, Tuesday

Time Temperature Precipitation Wind Pressure Humidity
00:00 +18°C° 0 mm 1 mps 699 mmHg 64%
01:00 +18°C° 0 mm 1 mps 699 mmHg 62%
02:00 +16°C° 0 mm 2 mps 699 mmHg 68%
03:00 +16°C° 0 mm 2 mps 699 mmHg 74%
04:00 +14°C° 0 mm 3 mps 699 mmHg 80%
05:00 +15°C° 0 mm 2 mps 700 mmHg 81%
06:00 +16°C° 0 mm 2 mps 701 mmHg 81%
07:00 +16°C° 0 mm 2 mps 701 mmHg 82%
08:00 +17°C° 0 mm 3 mps 702 mmHg 75%
09:00 +19°C° 0 mm 4 mps 702 mmHg 68%
10:00 +20°C° 0 mm 5 mps 703 mmHg 61%
11:00 +20°C° 0 mm 6 mps 703 mmHg 59%
12:00 +20°C° 0 mm 6 mps 703 mmHg 57%
13:00 +20°C° 0 mm 7 mps 703 mmHg 54%
14:00 +20°C° 0 mm 8 mps 703 mmHg 52%
15:00 +18°C° 0 mm 8 mps 704 mmHg 51%
16:00 +18°C° 0 mm 8 mps 704 mmHg 49%
17:00 +16°C° 0 mm 8 mps 704 mmHg 52%
18:00 +15°C° 0 mm 7 mps 704 mmHg 55%
19:00 +12°C° 0 mm 7 mps 703 mmHg 59%
20:00 +13°C° 0 mm 6 mps 704 mmHg 64%
21:00 +11°C° 0 mm 6 mps 704 mmHg 70%
22:00 +10°C° 0 mm 5 mps 704 mmHg 75%
23:00 +11°C° 0 mm 4 mps 704 mmHg 76%

12 May, Wednesday

Time Temperature Precipitation Wind Pressure Humidity
00:00 +10°C° 0 mm 4 mps 704 mmHg 77%
01:00 +10°C° 0 mm 3 mps 704 mmHg 77%
02:00 +9°C° 0 mm 3 mps 704 mmHg 79%
03:00 +9°C° 0 mm 2 mps 704 mmHg 81%
04:00 +8°C° 0 mm 2 mps 704 mmHg 82%
05:00 +9°C° 0 mm 2 mps 704 mmHg 78%
06:00 +10°C° 0 mm 2 mps 704 mmHg 73%
07:00 +12°C° 0 mm 2 mps 704 mmHg 69%
08:00 +14°C° 0 mm 2 mps 705 mmHg 59%
09:00 +15°C° 0 mm 2 mps 705 mmHg 49%
10:00 +17°C° 0 mm 3 mps 705 mmHg 39%
11:00 +18°C° 0 mm 3 mps 705 mmHg 36%
12:00 +20°C° 0 mm 3 mps 705 mmHg 32%
13:00 +21°C° 0 mm 3 mps 705 mmHg 29%
14:00 +21°C° 0 mm 4 mps 704 mmHg 30%
15:00 +21°C° 0 mm 4 mps 704 mmHg 30%
16:00 +21°C° 0 mm 5 mps 704 mmHg 31%
17:00 +20°C° 0 mm 4 mps 704 mmHg 37%
18:00 +18°C° 0 mm 3 mps 703 mmHg 43%
19:00 +16°C° 0 mm 2 mps 703 mmHg 49%
20:00 +15°C° 0 mm 2 mps 703 mmHg 50%
21:00 +14°C° 0 mm 1 mps 703 mmHg 51%
22:00 +13°C° 0 mm 1 mps 703 mmHg 52%
23:00 +13°C° 0 mm 1 mps 703 mmHg 53%

13 May, Thursday

Time Temperature Precipitation Wind Pressure Humidity
00:00 +13°C° 0 mm 1 mps 703 mmHg 53%
01:00 +12°C° 0 mm 1 mps 703 mmHg 53%
02:00 +12°C° 0 mm 1 mps 703 mmHg 53%
03:00 +12°C° 0 mm 1 mps 702 mmHg 52%
04:00 +11°C° 0 mm 1 mps 702 mmHg 52%
05:00 +13°C° 0 mm 1 mps 702 mmHg 50%
06:00 +14°C° 0 mm 1 mps 703 mmHg 48%
07:00 +15°C° 0 mm 1 mps 703 mmHg 46%
08:00 +18°C° 0 mm 1 mps 703 mmHg 41%
09:00 +20°C° 0 mm 1 mps 703 mmHg 36%
10:00 +20°C° 0 mm 2 mps 704 mmHg 31%
11:00 +21°C° 0 mm 2 mps 703 mmHg 30%
12:00 +23°C° 0 mm 2 mps 703 mmHg 29%
13:00 +24°C° 0 mm 3 mps 703 mmHg 28%
14:00 +25°C° 0 mm 3 mps 703 mmHg 29%
15:00 +25°C° 0 mm 4 mps 702 mmHg 31%
16:00 +25°C° 0 mm 4 mps 702 mmHg 32%
17:00 +22°C° 0 mm 4 mps 702 mmHg 39%
18:00 +19°C° 0 mm 3 mps 702 mmHg 47%
19:00 +17°C° 0 mm 3 mps 702 mmHg 54%
20:00 +16°C° 0 mm 2 mps 702 mmHg 56%
21:00 +15°C° 0 mm 1 mps 702 mmHg 58%
22:00 +14°C° 0 mm 1 mps 702 mmHg 59%
23:00 +14°C° 0 mm 1 mps 702 mmHg 60%

14 May, Friday

Time Temperature Precipitation Wind Pressure Humidity
00:00 +14°C° 0 mm 1 mps 702 mmHg 60%
01:00 +14°C° 0 mm 1 mps 701 mmHg 60%
02:00 +13°C° 0 mm 1 mps 701 mmHg 61%
03:00 +13°C° 0 mm 1 mps 700 mmHg 62%
04:00 +13°C° 0 mm 1 mps 700 mmHg 62%
05:00 +14°C° 0 mm 1 mps 700 mmHg 61%
06:00 +15°C° 0 mm 1 mps 700 mmHg 60%
07:00 +15°C° 0 mm 1 mps 700 mmHg 58%
08:00 +18°C° 0 mm 2 mps 701 mmHg 51%
09:00 +21°C° 0 mm 2 mps 701 mmHg 43%
10:00 +24°C° 0 mm 2 mps 702 mmHg 36%
11:00 +26°C° 0 mm 3 mps 701 mmHg 31%
12:00 +28°C° 0 mm 4 mps 701 mmHg 26%
13:00 +30°C° 0 mm 5 mps 701 mmHg 21%
14:00 +30°C° 0 mm 5 mps 701 mmHg 23%
15:00 +29°C° 0 mm 5 mps 700 mmHg 25%
16:00 +29°C° 0 mm 4 mps 700 mmHg 26%
17:00 +27°C° 0 mm 4 mps 700 mmHg 32%
18:00 +26°C° 0 mm 3 mps 700 mmHg 38%
19:00 +24°C° 0 mm 2 mps 700 mmHg 44%
20:00 +23°C° 0 mm 2 mps 700 mmHg 48%
21:00 +20°C° 0 mm 2 mps 700 mmHg 51%
22:00 +19°C° 0 mm 2 mps 700 mmHg 55%
23:00 +18°C° 0 mm 2 mps 699 mmHg 56%
Show more

We Need Your Consent

Meteoprog and our Service Providers may store and access personal data such as cookies, device identifiers or other similar technologies on your device and process such data to personalise content and ads, as well as provide social media features and to analyse the traffic.

  • Store and/or access information on your device

    Cookies, device identifiers or other information can be stored or accessed on your device for the purposes indicated above.

  • Personalised ads and content, ad and content measurement, audience insights, and products development

    Ads and content can be personalised based on a profile. More data can be added to better personalise ads and content. Ad and content performance can be measured. Insights about the audience who saw the ads and content can be derived. Such data can be used to develop or improve user’s experience, systems and software.

By clicking ‘I Agree’ you will allow the use of indicated cookies, device identifiers, web beacons or other similar technologies. Your settings can be changed in the browser on your device.

For certain purposes, legitimate interests may be relied on, rather than consent. You can read more about this in our Privacy and Cookie Policy.